Regional Weather Roundup
Issued by NWS

Home | Current Version | Previous Version | Text Only | Print | Product List | Glossary On
Versions: 1 2 3 4 5 6 7 8 9 10 11 12 13 14 15 16 17 18 19 20 21 22 23 24 25 26 27 28 29 30 31 32 33 34 35 36 37 38 39 40 41 42 43 44 45 46 47 48 49 50
000
ASUS44 KOUN 221110
RWROK

WEATHER ROUNDUP FOR OKLAHOMA
NATIONAL WEATHER SERVICE NORMAN OK
600 AM CDT SUN APR 22 2018

NOTE: "FAIR" INDICATES FEW OR NO CLOUDS BELOW 12,000 FEET WITH NO
      SIGNIFICANT WEATHER AND/OR OBSTRUCTIONS TO VISIBILITY.

OKZ001>007-009>012-014-015-017-221200-
NORTHWEST OKLAHOMA AND THE PANHANDLE

CITY           SKY/WX    TMP DP  RH WIND       PRES   REMARKS
GAGE           CLOUDY    45  42  89 N15       30.16S
GUYMON         MOCLDY    38  38 100 CALM      30.20R FOG
ENID/WOODRING  CLOUDY    45  45 100 NW14G20   30.09S
$$

OKZ016-021>023-033>039-044-045-221200-
SOUTHWEST OKLAHOMA

CITY           SKY/WX    TMP DP  RH WIND       PRES   REMARKS
LAWTON/REGL    CLEAR     46  42  86 NW6       30.11R
LAWTON/FT SILL CLEAR     45  44  94 NW7       30.09R
FREDERICK      CLEAR     43  41  93 W7        30.12R
CLINTON        MOCLDY    45  43  93 N16       30.12F
HOBART         MOCLDY    44  42  93 NW7       30.14R
ALTUS AFB      MOCLDY    47  43  86 NW8       30.15R
$$

OKZ018>020-024>031-221200-
CENTRAL OKLAHOMA

CITY           SKY/WX    TMP DP  RH WIND       PRES   REMARKS
OKLAHOMA CITY  PTCLDY    43  41  93 NW16      30.07R
OKC/WILEY POST CLEAR     44  42  93 NW12      30.08R
OKC/TINKER AFB CLOUDY    45  44  96 NW14G22   30.06R
STILLWATER     CLOUDY    47  43  86 NW13      30.06F
GUTHRIE        CLOUDY    46  44  93 NW12      30.08R
$$

OKZ008-013-054>072-221200-
NORTHEAST OKLAHOMA

CITY           SKY/WX    TMP DP  RH WIND       PRES   REMARKS
TULSA          LGT RAIN  48  46  93 NW12      30.01S FOG
TULSA/JONES    CLOUDY    49  46  90 VRB7      30.02S
PONCA CITY     LGT RAIN  46  44  93 NW13      30.06F FOG
BARTLESVILLE   CLOUDY    48  46  93 NW5       30.04R
MUSKOGEE       CLOUDY    49  49 100 NW15      30.01S FOG
$$

OKZ032-040>043-046>053-073>077-221200-
SOUTH CENTRAL/SOUTHEAST OKLAHOMA

CITY           SKY/WX    TMP DP  RH WIND       PRES   REMARKS
ARDMORE/DWNTWN PTCLDY    46  41  81 N5        30.08R
MCALESTER      CLOUDY    49  47  93 NW12      30.01F
$$




USA.gov is the U.S. government's official web portal to all federal, state and local government web resources and services.